Location: Unspecified
(0.0000°N, 0.0000°E)
Time: 23:17:24
(UTC+00:00)

NOSS 2-2 (C) - Visible Passes

Search period start: 06 June 2023 00:00
Search period end: 16 June 2023 00:00
Orbit: 420 x 1764 km, 63.3° (Epoch: 04 June)

Date Brightness Start Highest point End Pass type
(mag) Time Alt. Az. Time Alt. Az. Time Alt. Az.
08 Jun 5.9 19:53:39 10° SSW 19:55:17 18° SSW 19:55:17 18° SSW visible
09 Jun 4.6 19:05:24 10° S 19:10:20 29° ESE 19:11:02 28° ESE visible
10 Jun 5.4 20:07:03 10° SW 20:11:43 31° WNW 20:15:16 10° N visible
11 Jun 3.6 19:17:33 10° SSW 19:23:10 88° WNW 19:27:12 10° NNE visible
12 Jun 4.4 18:29:05 10° S 18:34:16 34° ESE 18:38:09 10° NE visible
13 Jun 5.9 19:31:12 10° SW 19:35:29 25° WNW 19:38:51 10° NNW visible
14 Jun 8.1 05:11:33 10° NNE 05:16:21 17° ENE 05:21:53 10° ESE visible
14 Jun 4.0 18:41:25 10° SSW 18:46:59 73° WNW 18:50:59 10° NNE visible
